Theta_e
343 341 341 342 338 331 330 331 332 331 331 331 331 332 333 334 332 332 328 320 316 317 316 316 317 324 324 322 322 322 318 313 313 313 312 312 312 320 321 320 318 317 317
342 342 339 331 329 329 330 332 333 334 335 335 334 334 333 331 329 321 315 315 319 317 319 317 320 323 323 323 321 317 315 314 312 312 311 311 312 317 319 318 315 315 317
340 339 336 329 330 329 329 330 335 334 332 332 330 326 320 317 315 314 314 315 315 315 317 322 322 322 322 324 323 320 317 315 312 312 312 311 311 314 314 313 311 313 313
336 334 331 331 330 332 334 334 332 329 324 318 316 314 313 313 313 313 313 313 314 314 317 317 316 317 320 322 322 320 320 317 313 312 312 312 313 314 313 312 311 313 314
334 333 330 332 333 333 330 325 320 317 315 315 313 312 313 313 314 314 315 314 315 315 315 314 315 316 317 321 322 322 321 317 316 314 313 313 312 313 313 313 316 316 316
334 334 334 332 328 326 324 320 316 314 314 314 314 315 315 316 316 318 319 318 316 315 314 313 315 316 316 323 325 324 321 320 319 319 314 313 313 313 314 316 317 317 317
332 331 331 329 325 319 317 316 317 320 323 323 323 323 323 323 323 322 322 323 321 316 315 313 315 316 317 321 322 322 321 319 318 319 317 313 313 312 315 317 318 317 318
331 330 330 325 323 326 324 324 324 324 324 323 323 323 323 322 322 323 323 323 324 321 317 314 315 316 320 321 321 323 324 323 321 320 319 318 314 312 314 317 317 318 318
332 330 326 326 328 328 325 325 324 324 324 323 322 321 322 323 323 323 323 322 322 320 316 315 314 318 321 320 322 324 324 322 322 321 321 320 319 317 313 316 318 319 319
329 328 329 328 329 328 328 327 324 324 323 322 322 323 324 323 323 322 322 320 320 316 314 314 315 320 321 323 320 321 322 322 321 321 320 320 319 319 318 316 319 319 318
327 328 327 327 326 325 324 322 324 323 322 322 321 319 319 320 322 320 319 318 318 316 315 315 314 315 317 317 316 317 319 320 320 320 319 319 319 319 319 317 318 318 318
324 325 326 326 325 324 325 324 324 323 322 322 321 322 322 323 323 325 325 324 322 320 320 320 319 319 317 318 321 321 321 321 321 320 320 320 320 320 320 317 318 319 317
325 326 326 326 326 324 324 323 323 323 322 324 323 323 323 324 324 324 323 322 321 324 323 322 321 321 321 321 321 321 321 319 317 317 318 318 319 320 322 321 317 319 318
325 327 328 326 325 325 325 325 324 323 325 324 322 323 324 323 322 322 322 321 322 321 321 321 319 318 318 318 319 320 319 318 320 320 321 322 322 321 321 322 319 319 319
328 329 328 326 324 323 323 322 321 322 322 321 321 321 320 320 319 319 320 319 318 319 319 319 321 322 322 322 321 322 322 322 322 323 323 323 323 321 320 320 320 319 320
329 328 328 326 322 322 322 322 321 321 321 321 321 321 322 322 322 322 321 321 321 321 321 321 321 321 320 321 320 321 322 323 323 323 322 317 318 319 317 317 318 320 320
328 328 326 320 320 322 322 324 322 322 322 322 323 324 324 323 322 322 322 322 321 321 320 320 323 323 321 320 320 322 320 318 321 319 317 317 317 316 316 316 317 318 318
329 328 325 317 319 323 323 324 325 325 325 324 323 322 323 323 324 324 325 325 324 323 325 324 323 323 322 321 321 321 318 317 316 315 314 316 315 314 314 314 316 316 316
328 326 323 324 324 323 324 324 323 323 322 323 324 324 325 325 327 327 326 324 323 323 323 323 321 320 319 318 319 317 318 317 317 316 316 314 313 313 313 313 313 313 314
328 326 324 324 324 325 324 323 322 323 323 323 325 326 327 326 326 323 324 323 323 322 323 320 319 319 319 319 318 318 317 316 316 316 314 313 311 309 308 310 311 311 311
325 325 325 326 326 324 323 323 323 323 324 325 326 326 325 325 324 325 324 324 325 324 322 320 318 318 319 318 317 317 315 315 314 313 311 306 306 307 306 307 306 306 306
326 326 326 325 324 324 324 324 325 325 326 325 325 325 324 325 325 323 323 323 322 321 317 313 311 313 315 316 315 314 313 314 312 310 305 301 300 300 301 304 305 307 307
324 323 323 323 323 324 325 326 327 326 326 326 324 325 325 323 320 320 320 321 321 317 314 312 310 311 311 312 312 312 312 311 310 306 302 303 302 302 300 300 301 304 306
322 324 325 325 326 327 327 327 325 324 325 325 325 324 321 318 319 317 317 316 313 313 313 312 312 312 310 310 310 311 311 309 307 305 304 304 303 302 299 301 304 305 306
326 326 327 326 327 325 324 324 326 325 324 323 323 319 317 315 314 313 312 311 310 309 309 309 308 309 309 309 311 310 309 307 307 305 303 304 303 302 300 303 303 304 304
326 324 324 325 326 326 325 324 325 324 323 319 316 316 314 313 312 311 311 311 309 309 308 308 307 307 307 307 307 307 308 307 307 307 304 304 303 301 302 302 302 302 302
Wind_Speed
15 10 6 8 8 4 5 5 6 6 5 5 5 6 7 6 6 5 5 7 8 6 6 5 5 3 5 5 5 5 8 11 16 18 19 19 21 15 18 24 25 26 29
11 8 6 7 10 8 8 8 5 4 5 5 5 5 7 6 8 12 12 9 6 4 2 2 1 1 3 6 5 7 10 13 14 20 22 19 17 17 21 25 25 24 27
5 5 8 10 8 8 8 6 5 4 4 4 3 3 6 7 8 6 5 3 3 1 1 1 3 4 5 8 9 10 12 15 15 18 21 21 19 17 19 20 24 24 25
7 8 8 11 11 9 6 5 5 6 5 6 6 7 6 5 5 3 3 4 4 3 4 5 5 8 8 9 10 11 15 17 18 21 21 22 19 17 20 23 25 23 26
7 7 9 8 7 7 7 7 7 7 6 5 4 3 3 4 4 5 4 6 6 7 7 7 7 9 9 7 10 13 16 16 18 21 22 22 19 19 22 23 22 25 27
7 8 9 9 9 8 7 6 6 5 3 1 3 3 3 4 4 5 7 9 11 12 10 10 11 11 11 12 15 16 18 20 21 22 23 21 19 22 22 21 21 24 30
10 8 8 6 6 6 5 4 2 2 3 4 5 7 7 8 8 7 9 12 14 13 14 12 12 13 14 14 15 17 19 20 23 24 25 23 22 21 19 19 21 25 29
9 9 6 5 5 5 4 3 3 4 5 7 7 9 11 12 12 12 13 15 17 18 17 15 16 16 15 16 20 23 25 24 25 27 26 26 26 23 21 22 26 27 28
7 6 3 5 4 1 1 3 4 6 7 8 11 12 13 14 16 15 16 18 20 21 20 18 18 17 17 19 28 31 29 29 28 28 29 30 30 28 25 27 26 28 28
6 4 4 5 5 6 5 6 7 9 10 11 14 15 17 19 20 20 22 22 23 23 22 20 16 19 19 20 20 21 26 27 30 31 32 34 34 34 29 23 24 25 24
7 7 8 9 10 11 11 9 12 13 12 14 15 17 16 16 15 11 11 14 12 14 16 17 16 16 19 24 25 27 30 31 33 33 34 37 38 36 34 26 23 26 28
8 8 8 9 7 6 8 9 11 11 14 16 16 13 10 12 14 16 16 17 16 20 18 18 19 19 22 26 25 26 28 29 33 37 39 41 40 37 31 24 25 30 32
6 8 8 9 10 9 11 14 15 15 17 17 16 18 20 18 20 16 15 16 15 19 20 21 22 25 28 33 34 36 35 39 40 40 41 41 40 39 40 33 29 32 35
6 9 9 10 10 12 14 15 16 16 18 19 16 18 17 18 19 21 20 19 18 20 21 21 26 28 31 34 36 40 43 43 43 42 43 44 44 46 45 41 37 35 37
8 9 11 14 16 18 18 18 17 16 16 16 17 18 18 18 12 11 14 17 20 22 25 26 28 32 37 40 43 40 36 39 38 33 24 26 29 30 33 35 36 39 44
13 15 15 17 15 17 16 15 15 17 17 18 20 21 22 23 22 21 21 25 28 30 32 33 34 31 42 39 36 35 30 28 25 24 28 30 24 38 36 36 30 34 41
18 18 18 18 18 14 15 17 17 16 18 21 23 23 25 26 25 26 30 33 37 42 46 44 41 37 37 38 42 32 30 32 35 24 25 28 28 22 24 29 24 29 34
17 17 18 12 9 10 12 16 19 22 19 23 25 23 22 26 29 30 31 29 34 39 38 34 33 37 34 36 23 33 33 31 31 28 27 25 22 22 21 21 22 26 26
14 17 16 14 14 16 18 21 24 28 29 24 26 27 29 31 28 24 22 26 29 32 27 28 32 28 27 25 27 27 25 20 21 18 13 13 11 12 13 14 15 16 18
17 22 22 23 24 25 26 26 24 25 27 30 36 31 25 20 24 32 33 41 37 25 19 23 19 23 23 21 20 17 22 19 10 8 11 13 18 18 17 16 16 16 16
21 20 21 24 26 27 28 31 31 31 31 29 25 15 17 29 33 27 30 20 15 9 12 17 23 23 23 21 18 20 13 6 7 10 14 13 10 13 15 16 17 15 16
18 21 20 23 24 26 27 26 22 16 8 14 26 31 26 18 16 14 15 14 13 13 13 17 22 20 17 17 17 10 5 8 9 12 13 16 15 15 15 15 16 18 17
25 26 21 20 22 25 26 16 9 12 20 25 20 14 14 11 15 15 17 14 13 16 17 22 20 17 16 13 13 15 15 13 14 13 14 19 22 23 21 17 15 14 17
16 19 19 20 23 20 20 16 21 24 24 7 10 11 13 9 8 7 7 10 15 16 16 17 15 13 16 19 17 15 13 13 11 13 16 20 23 28 22 11 9 14 17
18 22 27 25 16 19 27 20 19 7 4 7 11 10 3 6 13 15 16 19 17 15 14 13 16 18 15 14 18 15 17 15 16 15 17 21 24 26 16 10 13 14 16
19 21 22 23 19 25 27 20 8 8 8 5 2 4 8 12 12 12 11 9 12 11 13 14 15 17 21 24 20 20 19 22 23 30 25 28 24 24 10 14 12 13 17
Wind_Direction
191 188 214 226 229 186 134 148 174 165 170 179 205 205 211 211 208 207 178 145 153 124 95 82 60 36 18 350 332 338 311 327 316 322 324 326 326 326 320 317 321 324 328
202 221 224 174 159 152 159 163 182 238 261 237 220 227 230 215 193 166 156 150 150 145 145 81 51 213 327 339 327 343 345 340 334 331 330 331 324 318 314 315 321 326 333
217 215 165 163 158 165 176 204 252 244 226 240 223 181 138 136 138 146 161 161 167 204 164 179 257 287 306 299 307 326 338 330 330 327 325 329 327 324 319 323 325 328 340
168 153 151 159 162 165 204 220 183 174 164 149 142 138 143 156 174 182 207 227 224 235 253 266 295 307 294 293 303 315 323 324 327 328 327 324 329 336 335 335 334 342 344
112 122 130 149 165 155 146 140 141 145 155 141 135 163 213 239 239 231 262 273 271 266 261 263 286 294 286 286 299 305 310 310 319 328 328 322 329 338 339 336 335 342 342
148 139 133 137 130 134 130 142 151 155 143 181 235 245 287 312 314 296 311 307 292 285 286 274 281 292 289 271 290 285 297 298 306 309 320 325 332 340 339 329 331 334 328
128 125 136 138 141 133 132 128 126 96 32 8 358 357 348 343 340 325 314 308 306 291 288 282 284 289 290 281 288 293 293 301 304 305 310 320 320 333 327 321 322 317 318
147 158 186 175 135 95 70 56 44 359 330 328 325 308 301 306 303 296 290 294 298 298 292 287 288 288 286 290 287 284 286 293 299 300 299 311 314 321 316 307 305 305 310
170 205 181 165 153 148 223 282 275 267 267 276 283 287 286 280 277 274 277 284 290 291 289 286 280 279 286 296 297 284 283 286 297 299 297 299 306 308 312 299 301 299 301
195 207 198 177 201 217 236 245 249 259 271 277 271 268 274 283 290 290 285 284 282 284 285 283 278 269 287 300 303 304 295 295 295 295 295 294 300 301 297 285 294 291 298
193 210 227 239 247 243 241 246 250 265 268 272 280 279 277 278 291 274 270 275 282 287 286 289 284 279 282 290 295 299 300 302 302 299 297 297 300 301 301 284 277 282 292
212 233 247 260 266 254 290 260 275 287 284 296 292 298 296 299 310 297 269 269 280 277 287 292 294 296 290 290 294 293 294 298 298 301 301 301 299 299 303 285 269 275 284
226 246 257 260 264 267 266 274 276 275 285 293 295 301 309 315 312 293 310 311 299 282 286 291 296 295 292 292 289 288 289 294 297 297 298 298 299 297 297 290 264 265 278
272 252 262 275 288 280 268 271 275 274 272 279 289 298 298 297 292 293 293 294 292 290 299 293 301 300 297 299 300 301 300 299 300 300 300 301 300 297 292 289 271 271 266
277 273 285 290 288 287 285 284 284 287 287 293 294 293 295 298 311 294 285 287 286 285 287 290 293 297 301 304 306 308 310 305 297 293 296 313 314 306 294 292 286 274 273
261 269 272 275 284 285 290 302 294 296 296 294 295 296 299 296 296 295 294 290 288 288 286 287 291 306 307 290 308 295 296 298 282 284 296 312 299 313 307 291 302 286 270
261 277 301 291 260 269 271 290 288 294 292 292 294 293 291 293 294 291 288 287 288 290 290 290 294 292 300 296 303 292 297 302 288 299 322 317 321 310 305 297 290 277 269
272 283 302 284 266 281 281 291 296 298 295 289 287 288 289 291 291 290 286 292 299 292 297 302 292 295 299 307 290 305 307 304 300 304 311 311 313 300 294 295 291 289 279
269 295 290 288 283 286 290 290 288 286 287 283 288 295 297 291 285 297 305 305 310 304 296 300 293 297 300 296 299 301 300 305 309 308 311 314 314 326 328 326 318 316 309
275 280 283 287 290 288 285 285 286 283 283 294 295 295 299 299 302 308 299 304 303 307 282 285 296 308 309 307 300 303 313 313 306 294 302 308 315 315 313 307 308 308 309
275 274 280 285 286 288 290 288 286 288 294 292 291 287 296 299 315 316 310 309 304 315 316 311 316 312 309 302 294 312 309 290 289 307 310 314 312 315 321 324 334 316 295
271 279 280 281 286 292 294 299 290 279 293 322 318 309 306 321 316 315 317 314 319 323 317 335 341 329 317 304 308 305 268 269 296 312 322 329 326 320 303 293 304 312 328
268 269 268 265 274 292 306 316 308 317 306 306 316 311 321 335 333 326 322 311 307 319 323 335 340 338 338 338 325 303 299 302 294 313 336 340 336 331 322 312 295 297 305
265 278 282 280 288 295 299 287 319 307 298 288 291 306 323 323 298 306 311 318 333 331 335 333 336 328 327 327 320 308 294 283 277 305 321 338 339 339 328 302 319 327 315
280 288 287 268 273 307 326 314 320 311 289 288 309 320 309 318 320 331 330 330 333 328 331 331 329 331 328 323 310 303 281 265 277 299 318 323 327 336 329 320 329 327 303
273 280 290 290 292 313 319 282 258 224 245 288 297 264 329 344 336 335 340 341 327 328 326 321 318 320 320 323 322 317 307 284 290 301 312 308 320 327 316 333 330 319 317